This is the latest recevied weather packets stored in our database for station/object YC0ACE-13. If no packets are shown the sender has not sent any weather packets the latest 10 day(s).
| Time | Temp. | Humidity | Pressure | Rain* | Wind** | Luminosity | Snow |
|---|---|---|---|---|---|---|---|
| 1788579624 | 32.22° C | 50% | 1013.9 hPa | 0 mm | - | 727 W/m² | - |
| 1788579325 | 32.22° C | 49% | 1014.2 hPa | 0 mm | - | 692 W/m² | - |
| 1788579024 | 32.78° C | 48% | 1014.2 hPa | 0 mm | - | 711 W/m² | - |
| 1788578724 | 32.22° C | 50% | 1014.6 hPa | 0 mm | - | 650 W/m² | - |
| 1788578424 | 32.22° C | 50% | 1014.6 hPa | 0 mm | - | 690 W/m² | - |
| 1788578124 | 32.22° C | 50% | 1014.9 hPa | 0 mm | - | 664 W/m² | - |
| 1788577824 | 31.67° C | 51% | 1014.6 hPa | 0 mm | - | 638 W/m² | - |
| 1788577524 | 31.11° C | 52% | 1014.6 hPa | 0 mm | - | 620 W/m² | - |
| 1788577224 | 31.67° C | 52% | 1015.2 hPa | 0 mm | - | 644 W/m² | - |
| 1788576924 | 31.67° C | 52% | 1015.2 hPa | 0 mm | - | 619 W/m² | - |
| 1788576624 | 31.11° C | 54% | 1014.9 hPa | 0 mm | - | 638 W/m² | - |
| 1788576325 | 31.11° C | 55% | 1015.2 hPa | 0 mm | - | 599 W/m² | - |
| 1788576024 | 30.56° C | 55% | 1014.9 hPa | 0 mm | - | 538 W/m² | - |
| 1788575724 | 30.56° C | 56% | 1014.9 hPa | 0 mm | - | 549 W/m² | - |
| 1788575424 | 31.11° C | 56% | 1015.2 hPa | 0 mm | - | 527 W/m² | - |
| 1788575124 | 30.56° C | 58% | 1015.2 hPa | 0 mm | - | 539 W/m² | - |
| 1788574825 | 30° C | 57% | 1015.2 hPa | 0 mm | - | 524 W/m² | - |
| 1788574524 | 30° C | 58% | 1015.2 hPa | 0 mm | - | 497 W/m² | - |
| 1788574224 | 30° C | 58% | 1015.2 hPa | 0 mm | - | 479 W/m² | - |
| 1788573925 | 30° C | 60% | 1015.2 hPa | 0 mm | - | 464 W/m² | - |
| 1788573624 | 29.44° C | 60% | 1015.6 hPa | 0 mm | - | 433 W/m² | - |
| 1788573324 | 29.44° C | 60% | 1015.2 hPa | 0 mm | - | 424 W/m² | - |
| 1788573024 | 30° C | 59% | 1015.6 hPa | 0 mm | - | 411 W/m² | - |
| 1788572724 | 29.44° C | 64% | 1015.6 hPa | 0 mm | - | 400 W/m² | - |
| 1788572456 | 28.89° C | 66% | 1015.2 hPa | 0 mm | - | 384 W/m² | - |
* Rain latest hour (hover to see other rain measurements)
** Current wind speed in m/s (hover to see current wind gust speed)